Location: Beaver Brook Trail
(44.0290°N, 71.8137°W)
Time: 10:23:17
(UTC+00:00)

ARIANE 6 FM1 Upper Stage - Pass Details

Date: 19 October 2024
Orbit: 558 x 596 km, 62.0° (Epoch: 11 November)

Event Time Altitude Azimuth Distance (km) Brightness Sun altitude
Rises 01:12:23 0° 311° (NW) 2,834 7.2 -35.3°
Reaches altitude 10° 01:14:52 10° 300° (WNW) 1,933 6.2 -35.7°
Enters shadow 01:16:06 17° 289° (WNW) 1,540 5.5 -35.9°
